Theta_e
298 300 301 300 299 299 300 302 302 301 301 301 302 302 302 302 302 302 302 302 302 302 302 301 301 302 302 302 303 309 313 312 323 328 328 327 326 326 324 324 324 324 324 323
299 300 299 299 299 300 301 302 302 301 301 301 301 302 302 301 300 300 301 301 302 302 302 302 301 301 302 303 303 310 319 318 328 328 328 326 325 324 324 324 324 324 324 323
299 299 297 300 299 299 299 300 301 302 300 300 300 303 301 301 299 297 296 296 298 300 301 301 302 302 302 303 304 315 323 324 328 328 327 327 326 325 325 324 323 323 323 323
298 297 298 298 299 298 299 298 296 297 300 301 301 304 300 298 297 295 294 294 295 296 298 300 301 302 302 302 304 314 321 327 328 327 327 326 326 325 325 324 324 323 323 322
297 297 298 299 298 297 298 296 296 296 299 302 302 305 299 295 294 292 292 292 292 294 296 298 300 301 301 301 302 314 323 327 328 327 326 326 325 325 324 324 324 323 323 323
297 295 297 298 297 296 295 294 297 303 303 305 305 304 297 294 292 291 289 289 291 294 295 297 299 299 301 302 304 317 323 325 325 325 325 326 326 325 324 324 323 323 323 323
296 297 297 297 298 295 295 295 299 302 304 307 303 304 297 292 289 289 287 288 300 296 297 299 300 300 301 302 315 320 317 311 311 319 318 315 315 316 314 319 322 320 315 315
297 300 296 297 296 295 294 293 295 297 300 301 302 298 299 289 288 287 285 298 301 300 300 302 304 307 309 312 313 310 307 303 302 305 303 310 307 299 297 300 299 300 300 299
298 298 295 297 297 293 293 293 292 293 296 300 300 294 294 288 286 285 283 297 300 301 302 303 304 305 306 306 306 303 301 299 298 297 297 297 300 297 294 293 294 294 295 295
297 297 296 296 296 293 291 290 293 294 297 299 300 293 289 285 283 282 282 288 296 297 298 299 299 299 300 299 297 296 295 294 293 293 292 292 292 292 292 293 292 291 291 294
297 296 298 296 297 295 292 290 291 291 293 296 298 295 285 283 282 281 282 286 293 294 295 296 296 295 295 294 293 292 291 291 290 290 289 289 289 290 288 289 290 289 290 291
297 297 299 296 296 295 291 290 289 294 292 291 293 294 284 282 281 281 281 284 289 290 292 292 292 291 291 291 290 289 289 288 288 287 286 286 286 287 285 285 286 286 285 285
297 299 302 300 297 295 293 290 288 289 290 288 293 294 285 282 280 279 280 282 285 287 288 288 289 289 289 289 288 287 286 285 285 284 284 283 283 283 282 282 282 282 281 281
295 296 297 301 299 296 293 289 288 287 289 288 286 285 284 281 279 279 278 280 282 284 284 285 286 286 286 286 286 284 283 283 282 282 281 281 281 281 280 280 280 280 279 279
294 298 293 293 294 296 292 290 288 287 286 287 286 285 282 279 278 277 277 278 280 281 282 283 283 283 283 283 283 282 281 281 280 280 280 279 279 279 279 279 278 278 278 278
293 299 292 294 291 291 295 292 290 286 285 286 285 286 283 279 277 276 276 277 277 278 279 280 280 280 281 281 280 280 280 279 279 279 278 278 277 277 277 277 277 278 278 277
295 296 297 304 295 295 300 293 290 288 285 284 287 284 283 279 277 275 275 275 276 276 277 277 278 278 278 279 279 278 278 278 278 277 277 277 276 276 276 276 276 276 276 277
294 294 292 304 300 304 302 292 290 289 285 284 284 283 283 280 278 276 275 275 275 275 276 276 276 277 277 277 277 277 277 277 276 276 276 275 275 275 275 274 274 275 275 275
292 293 298 307 303 302 300 294 292 292 292 284 283 282 282 283 282 280 275 275 274 274 274 274 275 275 276 276 276 276 275 275 275 274 274 274 274 274 274 274 274 274 274 273
293 290 299 300 306 308 302 292 289 289 299 285 283 282 281 285 289 281 275 274 273 273 273 273 274 274 274 274 275 275 275 274 274 273 273 273 273 273 272 272 272 272 273 272
295 293 300 300 305 303 294 289 289 298 300 284 282 280 280 280 278 275 274 273 273 273 273 273 272 273 273 273 273 273 273 273 273 273 272 272 272 271 271 271 271 271 271 271
298 301 301 292 304 305 289 288 295 290 281 280 280 278 277 275 274 273 273 273 273 272 272 272 272 272 272 273 273 272 271 271 272 272 272 272 272 271 271 271 271 271 271 270
302 297 300 298 301 288 284 285 281 282 282 281 281 278 277 276 276 275 274 273 272 272 272 272 271 271 270 271 271 271 270 271 272 272 271 271 271 271 271 271 271 271 271 271
293 292 294 294 291 290 285 282 282 281 284 283 283 280 279 277 275 274 273 273 272 271 271 271 270 270 269 270 270 270 270 271 271 271 270 271 271 270 270 270 271 271 271 271
295 294 294 293 291 288 286 286 285 282 283 283 281 280 278 277 275 275 273 272 271 270 270 270 270 269 269 270 270 270 270 271 271 270 270 269 269 269 269 270 270 270 270 270
293 295 297 302 295 296 294 287 285 284 283 282 280 278 277 276 275 274 272 271 271 270 269 270 270 270 270 270 270 271 271 272 271 270 270 270 270 270 269 268 267 268 268 268
Wind_Speed
4 5 5 8 9 13 15 16 21 23 19 14 17 20 23 20 16 17 18 18 19 20 19 18 20 20 17 15 16 18 18 23 19 21 26 23 20 30 24 26 24 26 25 28
5 3 9 13 10 14 17 20 23 14 3 13 16 21 17 11 14 14 11 13 15 16 16 15 18 18 16 16 16 16 17 20 18 21 23 23 28 26 29 30 24 23 25 24
5 7 10 8 10 16 18 19 17 16 20 20 18 12 6 5 9 15 16 13 13 12 14 14 14 14 11 18 14 13 14 19 15 24 26 23 22 22 28 32 30 27 24 27
2 5 9 12 13 19 18 12 24 24 15 6 3 3 11 15 14 21 21 19 17 16 14 13 13 13 11 16 14 8 9 17 19 23 26 23 24 19 21 27 29 28 30 29
6 9 11 10 17 21 14 28 24 22 15 10 7 6 5 16 25 29 28 26 23 18 15 14 12 13 12 14 13 7 9 14 18 22 19 24 17 20 19 23 26 25 27 27
5 8 4 6 18 17 23 21 13 2 4 3 1 3 5 11 23 28 28 29 25 18 12 11 13 13 10 11 10 9 6 13 8 14 11 11 18 16 18 26 23 21 22 26
10 5 8 7 16 13 18 19 5 3 3 5 11 3 6 19 26 21 28 31 11 5 6 5 4 1 4 5 4 13 17 28 23 25 22 18 20 24 17 4 18 13 12 9
6 5 8 12 12 19 18 10 4 4 5 5 7 8 3 23 22 20 26 17 13 9 7 7 8 6 4 2 19 21 25 33 29 34 30 29 27 31 30 30 30 30 27 24
7 5 6 9 8 21 12 12 7 4 6 3 4 7 2 28 31 32 28 21 18 17 14 13 13 16 20 28 20 28 36 37 34 36 31 37 39 38 39 36 36 34 37 36
3 7 4 4 6 15 9 11 2 3 6 5 5 5 10 27 27 30 30 26 21 19 17 15 15 19 24 27 27 35 39 39 34 37 35 34 40 48 44 46 44 38 39 45
4 1 9 4 13 19 14 9 4 1 4 3 5 4 9 17 18 23 24 23 20 19 16 15 14 22 26 28 32 33 39 39 37 39 36 35 39 54 43 47 49 42 44 48
2 3 5 2 4 17 22 12 5 3 5 4 3 4 13 16 17 18 21 21 20 19 16 15 17 23 27 32 34 38 33 39 37 37 38 37 42 51 42 46 46 43 45 42
7 4 6 3 2 11 15 21 14 1 1 9 4 3 14 18 19 19 19 21 19 19 17 16 17 21 27 30 35 30 37 39 37 37 42 40 41 48 42 39 44 44 44 45
1 2 4 7 4 6 15 21 20 8 5 4 4 14 19 21 19 20 22 22 19 17 16 16 17 21 29 28 35 35 41 40 35 39 42 41 41 42 40 39 41 46 42 42
2 4 1 1 4 11 14 14 17 16 9 4 8 10 16 15 17 17 16 18 18 18 20 18 17 18 26 31 33 37 40 35 34 40 40 38 38 41 41 40 42 44 43 42
4 1 0 2 3 5 16 16 14 10 8 3 7 7 12 11 12 17 19 17 17 16 18 18 18 24 27 31 33 35 36 35 35 39 38 34 39 39 38 37 39 40 40 39
6 3 2 5 3 4 7 12 13 7 9 3 8 6 9 11 14 14 15 15 16 15 16 18 18 25 28 30 32 33 33 33 36 36 33 34 36 37 35 35 36 36 34 33
5 1 2 2 4 10 3 2 5 10 8 7 4 4 4 3 7 12 14 14 14 15 16 16 21 26 28 29 31 31 33 34 35 35 33 33 34 35 32 35 33 33 33 33
4 3 2 2 4 3 3 1 1 2 7 6 4 4 1 6 5 12 14 13 13 16 17 19 22 23 25 29 28 33 35 34 35 33 33 31 31 33 32 32 31 28 28 28
3 0 2 1 3 2 2 3 4 2 6 3 4 6 5 3 8 3 12 15 15 17 17 18 19 22 29 26 26 34 32 32 31 30 29 31 32 32 29 26 23 22 24 23
2 2 2 1 2 3 2 3 6 2 5 5 2 2 8 5 4 3 6 10 12 14 16 16 21 24 24 24 27 30 29 28 24 26 27 28 28 28 25 26 25 24 23 21
1 1 1 1 1 1 4 5 4 5 3 6 5 4 7 5 4 5 6 10 12 14 15 15 19 21 20 21 24 26 25 19 23 25 28 29 27 23 26 28 23 20 18 18
2 3 0 4 1 0 3 3 1 4 7 7 8 6 8 8 6 6 7 9 11 12 13 13 17 20 20 21 22 23 19 24 28 31 31 28 26 23 21 20 16 15 15 13
4 4 2 1 3 3 3 2 4 5 7 12 10 12 11 10 9 9 9 9 10 10 12 13 16 18 18 19 21 21 23 27 30 30 26 24 24 22 18 16 16 17 16 14
1 8 6 3 2 1 7 11 12 9 8 11 14 13 13 13 11 11 11 10 10 10 11 14 17 17 18 20 22 23 25 26 28 27 24 21 21 21 20 19 14 12 13 13
8 8 6 5 13 5 11 17 17 15 14 14 13 12 14 14 14 15 13 13 13 13 15 17 18 19 19 19 20 20 21 22 24 23 21 20 19 17 16 12 11 12 11 11
Wind_Direction
24 292 302 352 320 296 294 284 284 282 289 285 282 286 291 302 294 280 271 266 263 268 276 280 275 277 276 276 276 283 243 245 247 223 195 194 189 193 179 184 195 201 200 203
334 25 7 333 316 291 287 296 292 287 274 294 294 293 307 28 36 17 347 308 276 273 274 271 272 276 274 274 277 276 238 243 227 202 179 175 180 176 183 194 192 206 201 204
319 333 342 300 326 330 309 298 292 297 310 291 272 263 57 28 24 11 6 347 330 317 295 277 273 270 278 277 277 273 228 231 198 189 181 188 181 181 186 203 208 212 206 208
312 321 325 334 329 337 310 316 307 293 297 276 19 287 51 356 353 351 345 339 326 312 304 296 278 270 256 277 295 276 230 218 197 191 178 179 174 179 193 193 198 204 209 212
350 318 327 326 341 329 301 308 303 289 272 264 239 223 41 14 353 343 336 329 317 305 299 297 293 269 263 269 284 265 236 183 175 187 196 193 195 213 191 192 190 199 212 218
303 296 270 330 333 329 340 319 311 344 192 186 205 252 44 16 346 336 332 319 308 291 287 285 288 272 266 263 270 201 143 104 168 111 94 210 189 187 189 192 191 195 209 219
329 285 339 309 329 341 354 352 6 53 13 40 6 31 64 5 352 339 326 316 329 276 263 289 309 219 248 259 210 151 92 79 84 99 92 83 67 63 65 125 149 135 109 115
342 351 10 346 23 342 351 11 18 7 357 329 351 6 76 5 341 337 340 336 52 64 70 77 82 64 28 82 93 93 85 78 73 78 76 86 76 76 64 75 77 88 90 81
338 298 332 40 27 14 340 3 312 261 225 250 20 8 165 349 346 350 347 1 25 32 32 44 51 50 65 71 78 87 82 74 70 74 68 76 85 82 76 71 74 75 81 83
328 292 15 32 344 27 6 353 3 5 12 10 31 46 346 346 341 338 347 351 13 21 23 33 47 54 64 71 74 78 83 78 78 79 75 75 81 83 80 82 77 76 82 88
307 222 327 4 23 21 12 12 348 285 10 350 333 57 2 345 341 334 339 347 7 18 20 33 46 54 65 73 71 73 74 81 78 78 78 76 79 80 75 75 78 73 79 84
336 294 312 17 198 33 31 9 349 344 15 17 295 74 18 356 349 344 344 351 6 17 22 29 45 54 61 65 65 66 72 72 73 76 76 71 75 80 71 75 75 72 73 74
344 7 333 149 179 35 25 15 19 76 38 25 339 21 7 358 356 351 357 359 7 16 21 30 42 51 59 67 71 72 72 70 70 74 75 70 69 76 71 68 75 72 71 71
329 46 39 50 44 351 15 22 26 42 49 335 23 321 348 359 351 352 360 2 9 16 22 34 41 50 58 62 70 68 69 69 71 73 73 72 71 71 74 73 73 76 74 73
41 40 79 197 287 50 44 28 28 48 26 33 340 5 358 356 347 352 5 5 9 20 25 34 42 46 52 60 69 69 70 72 74 74 72 73 76 76 74 72 72 74 73 73
3 57 193 140 272 253 45 31 33 43 20 19 360 39 355 359 3 9 3 2 12 16 25 32 39 43 51 54 64 71 72 73 75 75 74 76 76 76 74 74 74 74 73 71
349 335 1 40 26 195 23 18 30 59 32 317 40 339 341 12 28 7 355 3 15 11 23 33 35 43 51 61 67 69 73 76 74 77 77 77 78 77 76 77 77 75 75 76
323 6 6 348 324 42 334 102 161 71 51 36 58 7 357 96 60 21 11 10 16 16 27 31 40 51 56 65 72 80 79 77 74 73 73 73 75 76 77 79 76 75 76 73
207 305 62 40 37 139 212 350 343 360 19 14 352 3 306 200 214 54 19 21 24 26 33 39 44 52 60 62 71 75 73 73 72 70 72 75 79 80 78 75 74 75 76 73
171 289 294 107 78 60 124 166 180 194 45 32 13 6 355 202 96 28 354 11 24 35 36 40 53 62 62 61 74 73 71 72 71 73 77 83 85 84 82 83 82 80 76 73
344 19 59 104 106 260 148 147 162 176 179 157 157 63 54 56 19 47 21 40 41 42 52 60 62 62 66 75 80 77 76 72 81 87 86 84 84 84 85 84 79 79 79 80
216 168 153 127 159 222 138 130 212 126 105 142 150 139 115 136 120 85 64 61 61 64 66 71 78 75 74 79 84 82 79 88 96 98 94 92 92 87 85 84 78 74 68 65
224 212 200 221 340 76 194 280 93 152 141 175 153 163 149 141 127 113 90 81 79 82 83 86 91 89 83 89 94 95 98 104 104 102 100 97 94 87 79 74 69 62 59 59
217 165 195 224 184 202 174 176 186 184 148 157 157 159 162 143 138 125 118 111 103 98 97 103 102 97 95 101 104 106 114 114 109 102 94 89 84 77 72 64 57 53 45 42
82 157 167 247 173 199 226 211 181 177 157 154 154 162 159 152 153 146 138 132 127 122 116 114 110 109 107 111 112 115 114 110 101 96 92 84 77 74 70 68 56 58 54 45
189 177 180 207 177 176 187 185 176 171 177 169 160 155 161 161 155 154 150 151 149 145 140 132 130 127 123 121 118 117 116 112 104 97 92 88 85 82 78 75 67 64 61 54